Location: Central Falls
(41.8900°N, 71.3929°W)
Time: 07:15:58
(UTC+00:00)

Altair - Pass Details

Date: 14 December 2023
Orbit: 1501 x 1682 km, 47.2° (Epoch: 29 February)

Event Time Altitude Azimuth Distance (km) Brightness Sun altitude
Rises 15:27:26 0° 293° (WNW) 4,791 9.7 22.7°
Reaches altitude 10° 15:30:34 10° 294° (WNW) 3,781 9.3 22.9°
Maximum altitude 15:40:09 88° 25° (NNE) 1,540 7.9 23.4°
Drops below altitude 10° 15:49:24 10° 116° (ESE) 3,659 10.1 23.8°
Sets 15:52:23 0° 117° (ESE) 4,630 10.6 24.0°
